Date,TemperatureHighF,TemperatureAvgF,TemperatureLowF,DewpointHighF,DewpointAvgF,DewpointLowF,HumidityHigh,HumidityAvg,HumidityLow,PressureMaxIn,PressureMinIn,WindSpeedMaxMPH,WindSpeedAvgMPH,GustSpeedMaxMPH,PrecipitationSumIn
2013-11-1,52,44,37,40,37,31,94,78,59,29.87,29.42,9,0,12,0.00
2013-11-2,51,40,32,36,32,28,86,73,48,30.12,29.87,6,0,11,0.00
2013-11-3,56,44,32,38,34,29,89,68,47,30.12,29.87,15,1,18,0.00
2013-11-4,49,44,31,45,37,28,89,77,61,30.17,29.83,15,1,16,0.01
2013-11-5,43,35,27,39,30,25,92,84,60,30.27,30.03,4,0,5,0.03
2013-11-6,40,34,31,31,28,24,91,78,59,30.20,30.03,9,-7,11,0.08
2013-11-7,35,30,25,31,26,22,92,85,79,30.28,30.19,7,0,10,0.00
2013-11-8,46,36,22,40,28,19,90,76,54,30.24,29.61,13,1,14,0.00
2013-11-9,46,42,36,40,33,26,82,72,58,30.22,29.63,19,3,25,0.00
2013-11-10,45,38,32,32,30,25,79,71,58,30.35,30.10,10,1,14,0.00
2013-11-11,39,26,17,32,15,8,80,63,50,30.79,30.12,9,2,11,0.00
2013-11-12,30,20,13,14,11,6,80,66,46,30.85,30.49,7,0,8,0.00
2013-11-13,50,38,22,36,26,14,72,61,50,30.49,29.88,17,1,20,0.00
2013-11-14,51,41,33,39,33,28,86,74,63,29.88,29.76,6,-4,8,0.00
2013-11-15,58,42,26,42,34,24,91,76,52,29.88,29.63,11,0,13,0.00
2013-11-16,49,46,42,47,42,35,93,87,70,29.63,29.22,7,0,10,0.09
2013-11-17,44,40,33,42,35,26,92,84,74,29.86,29.31,19,2,21,0.00
2013-11-18,38,30,22,26,22,17,81,70,55,30.30,29.86,18,2,21,0.00
2013-11-19,48,36,20,32,26,16,87,70,51,30.30,29.92,15,2,17,0.00
2013-11-20,46,42,38,34,31,27,85,66,51,30.05,29.88,14,1,18,0.00
2013-11-21,39,32,25,35,27,17,89,84,70,30.55,30.05,10,1,11,0.00
2013-11-22,33,24,14,17,13,4,80,63,40,30.69,30.49,13,1,18,0.00
2013-11-23,19,13,8,6,3,1,77,64,47,30.91,30.69,11,1,12,0.00
2013-11-24,31,20,7,17,10,1,77,64,50,30.78,30.04,16,2,23,0.00
2013-11-25,39,34,28,30,24,17,83,66,58,30.10,29.94,14,-6,17,0.00
2013-11-26,32,22,14,21,9,4,68,57,48,30.44,30.10,17,3,19,0.00
2013-11-27,25,18,8,14,8,2,81,66,54,30.45,30.12,7,0,11,0.00
2013-11-28,29,23,12,16,12,6,76,65,56,30.57,30.11,10,1,12,0.00
2013-11-29,34,23,10,22,15,5,92,73,56,30.57,30.17,9,0,12,0.00
2013-11-30,40,32,24,29,25,19,85,73,61,30.19,30.05,5,-4,5,0.02